| time (UTC) | temp F | wind direction | speed knots | gust knots | rain 1hr in | rain 24hr in | rain mn in | humidity % | barometer mb |
| 20260906012646 | 78 | 164 | 0.0 | 0.0 | 0.00 | 0.00 | 1.15 | 92 | 1011.2 |
| 20260906012147 | 78 | 129 | 0.0 | 0.0 | 0.00 | 0.00 | 1.15 | 93 | 1011.2 |
| 20260906011647 | 78 | 148 | 1.7 | 2.6 | 0.00 | 0.00 | 1.15 | 93 | 1011.2 |
| 20260906011146 | 78 | 210 | 0.0 | 0.0 | 0.00 | 0.00 | 1.15 | 92 | 1011.2 |
| 20260906010647 | 78 | 135 | 0.0 | 0.0 | 0.00 | 0.00 | 1.15 | 92 | 1011.2 |
| 20260906010147 | 78 | 135 | 0.0 | 0.0 | 0.00 | 0.00 | 1.15 | 91 | 1011.2 |
| 20260906005646 | 78 | 143 | 1.7 | 1.7 | 0.00 | 0.00 | 1.15 | 91 | 1011.2 |
| 20260906005147 | 78 | 209 | 0.0 | 1.7 | 0.00 | 0.00 | 1.15 | 91 | 1011.5 |
| 20260906004646 | 78 | 284 | 0.9 | 2.6 | 0.00 | 0.00 | 1.15 | 91 | 1011.2 |
| 20260906004146 | 78 | 234 | 1.7 | 2.6 | 0.00 | 0.00 | 1.15 | 91 | 1011.2 |
| 20260906003646 | 79 | 232 | 1.7 | 1.7 | 0.00 | 0.00 | 1.15 | 91 | 1011.2 |
| 20260906003146 | 78 | 231 | 2.6 | 3.5 | 0.00 | 0.00 | 1.15 | 91 | 1011.5 |
| 20260906002646 | 78 | 230 | 1.7 | 4.3 | 0.00 | 0.00 | 1.15 | 92 | 1011.2 |
| 20260906002146 | 79 | 234 | 4.3 | 4.3 | 0.00 | 0.00 | 1.15 | 93 | 1011.2 |
| 20260906001646 | 79 | 228 | 3.5 | 3.5 | 0.00 | 0.00 | 1.15 | 93 | 1011.5 |
| 20260906001146 | 79 | 207 | 1.7 | 2.6 | 0.00 | 0.00 | 1.15 | 94 | 1011.5 |
| 20260906000646 | 79 | 228 | 1.7 | 3.5 | 0.00 | 0.00 | 1.15 | 94 | 1011.5 |
| 20260906000147 | 79 | 189 | 0.0 | 1.7 | 0.00 | 0.00 | 1.15 | 95 | 1011.5 |
| 20260905235646 | 79 | 173 | 1.7 | 1.7 | 0.00 | 0.00 | 1.15 | 95 | 1011.5 |
| 20260905235147 | 79 | 228 | 0.0 | 2.6 | 0.00 | 0.00 | 1.15 | 95 | 1011.5 |
| 20260905234647 | 79 | 275 | 1.7 | 3.5 | 0.00 | 0.00 | 1.15 | 94 | 1011.5 |
| 20260905234146 | 79 | 252 | 0.9 | 2.6 | 0.00 | 0.00 | 1.15 | 94 | 1011.2 |
| 20260905233646 | 78 | 226 | 1.7 | 2.6 | 0.00 | 0.00 | 1.15 | 94 | 1011.2 |
| 20260905233146 | 78 | 174 | 0.0 | 2.6 | 0.00 | 0.00 | 1.15 | 93 | 1011.5 |
| 20260905232646 | 78 | 192 | 1.7 | 2.6 | 0.00 | 0.00 | 1.15 | 93 | 1011.9 |
| 20260905232146 | 78 | 223 | 2.6 | 3.5 | 0.02 | 0.00 | 1.15 | 92 | 1011.9 |
| 20260905231646 | 78 | 243 | 2.6 | 3.5 | 0.05 | 0.00 | 1.15 | 91 | 1011.5 |
| 20260905231147 | 78 | 223 | 1.7 | 2.6 | 0.05 | 0.00 | 1.15 | 92 | 1011.5 |
| 20260905230646 | 78 | 47 | 0.0 | 3.5 | 0.05 | 0.00 | 1.15 | 92 | 1011.9 |
| 20260905230146 | 78 | 27 | 0.9 | 1.7 | 0.05 | 0.00 | 1.14 | 92 | 1011.5 |
| 20260905225647 | 78 | 71 | 1.7 | 3.5 | 0.17 | 0.00 | 1.14 | 93 | 1011.9 |
| 20260905225146 | 78 | 68 | 0.0 | 3.5 | 0.35 | 0.00 | 1.13 | 93 | 1012.2 |
| 20260905224646 | 79 | 13 | 4.3 | 5.2 | 0.40 | 0.00 | 1.11 | 94 | 1012.2 |
| 20260905224147 | 80 | 16 | 2.6 | 5.2 | 0.24 | 0.00 | 1.07 | 93 | 1012.2 |
| 20260905223646 | 80 | 63 | 0.0 | 7.8 | 0.07 | 0.00 | 1.04 | 92 | 1012.2 |
| 20260905223146 | 82 | 66 | 11.3 | 11.3 | 0.00 | 0.00 | 1.03 | 87 | 1012.2 |
| 20260905222646 | 82 | 341 | 2.6 | 4.3 | 0.00 | 0.00 | 1.03 | 86 | 1011.9 |
| 20260905222146 | 83 | 7 | 2.6 | 3.5 | 0.00 | 0.00 | 1.03 | 85 | 1012.2 |
| 20260905221646 | 83 | 335 | 2.6 | 4.3 | 0.00 | 0.00 | 1.03 | 83 | 1012.2 |
| 20260905221146 | 83 | 284 | 4.3 | 7.8 | 0.00 | 0.00 | 1.03 | 82 | 1011.9 |
| 20260905220646 | 83 | 237 | 7.0 | 13.9 | 0.00 | 0.00 | 1.03 | 83 | 1011.9 |
| 20260905220148 | 83 | 224 | 10.4 | 11.3 | 0.00 | 0.00 | 1.03 | 83 | 1011.9 |
| 20260905215647 | 84 | 216 | 9.6 | 15.6 | 0.00 | 0.00 | 1.03 | 82 | 1011.5 |
| 20260905215146 | 88 | 218 | 11.3 | 17.4 | 0.00 | 0.00 | 1.03 | 73 | 1011.5 |
| 20260905214646 | 89 | 217 | 7.8 | 9.6 | 0.00 | 0.00 | 1.03 | 67 | 1011.5 |
| 20260905214146 | 88 | 197 | 7.8 | 7.8 | 0.00 | 0.00 | 1.03 | 67 | 1011.2 |
| 20260905213646 | 89 | 177 | 8.7 | 10.4 | 0.00 | 0.00 | 1.03 | 67 | 1011.5 |
| 20260905213148 | 89 | 180 | 7.8 | 11.3 | 0.00 | 0.00 | 1.03 | 68 | 1011.2 |
| 20260905212646 | 90 | 198 | 4.3 | 9.6 | 0.00 | 0.00 | 1.03 | 66 | 1011.2 |
| 20260905212146 | 90 | 189 | 6.1 | 8.7 | 0.00 | 0.00 | 1.03 | 67 | 1011.2 |
| 20260905211646 | 90 | 179 | 5.2 | 8.7 | 0.00 | 0.00 | 1.03 | 69 | 1011.2 |
| 20260905211148 | 89 | 172 | 5.2 | 7.8 | 0.00 | 0.00 | 1.03 | 69 | 1011.2 |
| 20260905210646 | 89 | 138 | 5.2 | 5.2 | 0.00 | 0.00 | 1.03 | 65 | 1011.2 |
| 20260905210146 | 89 | 163 | 2.6 | 7.0 | 0.00 | 0.00 | 1.03 | 66 | 1011.2 |
| 20260905205646 | 89 | 181 | 6.1 | 7.8 | 0.00 | 0.00 | 1.03 | 66 | 1011.2 |
| 20260905205146 | 90 | 177 | 3.5 | 7.0 | 0.00 | 0.00 | 1.03 | 65 | 1011.2 |
| 20260905204646 | 92 | 145 | 2.6 | 4.3 | 0.00 | 0.00 | 1.03 | 62 | 1011.2 |
| 20260905204147 | 91 | 251 | 0.9 | 3.5 | 0.00 | 0.00 | 1.03 | 64 | 1011.2 |
| 20260905203646 | 90 | 127 | 2.6 | 5.2 | 0.00 | 0.00 | 1.03 | 66 | 1011.2 |
| 20260905203146 | 90 | 168 | 4.3 | 7.8 | 0.00 | 0.00 | 1.03 | 66 | 1011.2 |
| 20260905202646 | 90 | 15 | 0.9 | 4.3 | 0.00 | 0.00 | 1.03 | 64 | 1011.2 |
| 20260905202146 | 90 | 177 | 4.3 | 5.2 | 0.00 | 0.00 | 1.03 | 67 | 1011.2 |
| 20260905201646 | 90 | 79 | 2.6 | 7.8 | 0.00 | 0.00 | 1.03 | 65 | 1011.5 |
| 20260905201146 | 91 | 160 | 3.5 | 7.0 | 0.00 | 0.00 | 1.03 | 66 | 1011.2 |
| 20260905200646 | 91 | 167 | 4.3 | 6.1 | 0.00 | 0.00 | 1.03 | 66 | 1011.5 |
| 20260905200147 | 89 | 59 | 2.6 | 3.5 | 0.00 | 0.00 | 1.03 | 69 | 1011.2 |
| 20260905195646 | 89 | 173 | 4.3 | 6.1 | 0.00 | 0.00 | 1.03 | 69 | 1011.2 |
| 20260905195147 | 90 | 181 | 3.5 | 5.2 | 0.00 | 0.00 | 1.03 | 67 | 1011.5 |
| 20260905194647 | 90 | 176 | 2.6 | 3.5 | 0.00 | 0.00 | 1.03 | 68 | 1011.9 |
| 20260905194146 | 89 | 107 | 0.9 | 2.6 | 0.00 | 0.00 | 1.03 | 70 | 1011.9 |
| 20260905193646 | 88 | 160 | 3.5 | 6.1 | 0.00 | 0.00 | 1.03 | 71 | 1011.5 |
| 20260905193147 | 88 | 116 | 1.7 | 4.3 | 0.00 | 0.00 | 1.03 | 70 | 1011.9 |
| 20260905192648 | 88 | 311 | 1.7 | 4.3 | 0.00 | 0.00 | 1.03 | 71 | 1011.9 |
| 20260905192146 | 88 | 344 | 1.7 | 3.5 | 0.00 | 0.00 | 1.03 | 70 | 1012.2 |
| 20260905191646 | 88 | 356 | 2.6 | 6.1 | 0.00 | 0.00 | 1.03 | 70 | 1012.2 |
| 20260905191146 | 89 | 327 | 1.7 | 4.3 | 0.00 | 0.00 | 1.03 | 69 | 1012.2 |
| 20260905190647 | 90 | 59 | 2.6 | 6.1 | 0.00 | 0.00 | 1.03 | 68 | 1012.2 |
| 20260905190146 | 90 | 232 | 2.6 | 4.3 | 0.00 | 0.00 | 1.03 | 68 | 1012.2 |
| 20260905185647 | 91 | 169 | 2.6 | 5.2 | 0.00 | 0.00 | 1.03 | 69 | 1011.9 |
| 20260905185147 | 89 | 44 | 0.0 | 3.5 | 0.00 | 0.00 | 1.03 | 67 | 1012.2 |
| 20260905184646 | 90 | 322 | 2.6 | 3.5 | 0.00 | 0.00 | 1.03 | 65 | 1012.5 |
| 20260905184147 | 90 | 42 | 0.0 | 5.2 | 0.00 | 0.00 | 1.03 | 65 | 1012.9 |
| 20260905183647 | 89 | 314 | 1.7 | 4.3 | 0.00 | 0.00 | 1.03 | 70 | 1012.9 |
| 20260905183147 | 88 | 357 | 0.9 | 4.3 | 0.00 | 0.00 | 1.03 | 70 | 1012.9 |
| 20260905182646 | 88 | 354 | 2.6 | 5.2 | 0.00 | 0.00 | 1.03 | 74 | 1012.9 |
| 20260905182146 | 88 | 287 | 2.6 | 4.3 | 0.00 | 0.00 | 1.03 | 74 | 1013.2 |
| 20260905181646 | 87 | 269 | 2.6 | 2.6 | 0.00 | 0.00 | 1.03 | 75 | 1012.9 |
| 20260905181146 | 86 | 240 | 2.6 | 4.3 | 0.00 | 0.00 | 1.03 | 75 | 1013.2 |
| 20260905180646 | 86 | 252 | 0.9 | 3.5 | 0.00 | 0.00 | 1.03 | 77 | 1013.2 |
| 20260905180147 | 86 | 199 | 4.3 | 5.2 | 0.00 | 0.00 | 1.03 | 78 | 1013.2 |
| 20260905175646 | 86 | 242 | 1.7 | 2.6 | 0.00 | 0.00 | 1.03 | 82 | 1013.2 |
| 20260905175146 | 85 | 261 | 3.5 | 4.3 | 0.00 | 0.00 | 1.03 | 82 | 1013.2 |
| 20260905174647 | 84 | 205 | 3.5 | 4.3 | 0.00 | 0.00 | 1.03 | 84 | 1013.2 |
| 20260905174147 | 84 | 209 | 4.3 | 4.3 | 0.00 | 0.00 | 1.03 | 86 | 1013.2 |
| 20260905173654 | 83 | 157 | 0.0 | 3.5 | 0.00 | 0.00 | 1.03 | 89 | 1013.2 |
| 20260905173147 | 82 | 223 | 1.7 | 4.3 | 0.00 | 0.00 | 1.03 | 91 | 1013.2 |
| 20260905172646 | 81 | 251 | 3.5 | 3.5 | 0.00 | 0.00 | 1.03 | 91 | 1013.5 |
| 20260905172146 | 81 | 285 | 2.6 | 3.5 | 0.00 | 0.00 | 1.03 | 91 | 1013.5 |
| 20260905171647 | 82 | 291 | 2.6 | 4.3 | 0.00 | 0.00 | 1.03 | 93 | 1013.5 |
| 20260905171147 | 81 | 335 | 1.7 | 3.5 | 0.00 | 0.00 | 1.03 | 95 | 1013.5 |
| 20260905170647 | 79 | 355 | 0.0 | 2.6 | 0.00 | 0.00 | 1.03 | 97 | 1013.5 |
| 20260905170146 | 80 | 315 | 0.0 | 2.6 | 0.00 | 0.00 | 1.03 | 99 | 1013.5 |
| 20260905165646 | 79 | 355 | 0.0 | 2.6 | 0.02 | 0.00 | 1.03 | 99 | 1013.9 |
| 20260905165146 | 79 | 339 | 1.7 | 2.6 | 0.09 | 0.00 | 1.03 | 99 | 1013.9 |
| 20260905164647 | 78 | 268 | 3.5 | 4.3 | 0.21 | 0.00 | 1.03 | 99 | 1013.9 |
| 20260905164147 | 78 | 262 | 1.7 | 3.5 | 0.33 | 0.00 | 1.02 | 98 | 1013.9 |
| 20260905163646 | 77 | 82 | 0.0 | 6.1 | 0.69 | 0.00 | 0.99 | 99 | 1013.9 |
| 20260905163146 | 77 | 58 | 4.3 | 4.3 | 1.23 | 0.00 | 0.95 | 98 | 1014.2 |
| 20260905162646 | 77 | 133 | 2.6 | 4.3 | 1.16 | 0.00 | 0.85 | 98 | 1014.2 |
| 20260905162146 | 77 | 176 | 3.5 | 6.1 | 1.70 | 0.00 | 0.75 | 98 | 1014.2 |
| 20260905161646 | 77 | 163 | 4.3 | 5.2 | 2.03 | 0.00 | 0.59 | 97 | 1014.2 |
| 20260905161146 | 77 | 186 | 5.2 | 7.8 | 1.49 | 0.00 | 0.44 | 97 | 1014.2 |
| 20260905160646 | 78 | 201 | 7.8 | 13.0 | 0.90 | 0.00 | 0.28 | 96 | 1014.2 |
| 20260905160146 | 78 | 216 | 5.2 | 8.7 | 0.47 | 0.00 | 0.18 | 94 | 1014.2 |
| 20260905155647 | 79 | 173 | 7.8 | 8.7 | 0.33 | 0.00 | 0.13 | 95 | 1013.9 |
| 20260905155148 | 79 | 138 | 3.5 | 7.8 | 0.50 | 0.00 | 0.10 | 95 | 1014.2 |
| 20260905154646 | 80 | 141 | 5.2 | 5.2 | 0.31 | 0.00 | 0.06 | 92 | 1013.9 |
| 20260905154147 | 80 | 193 | 3.5 | 7.8 | 0.07 | 0.00 | 0.01 | 91 | 1013.5 |
| 20260905153646 | 81 | 153 | 3.5 | 5.2 | 0.02 | 0.00 | 0.00 | 89 | 1013.5 |
| 20260905153147 | 81 | 129 | 1.7 | 6.1 | 0.00 | 0.00 | 0.00 | 88 | 1013.9 |
| 20260905152646 | 81 | 57 | 2.6 | 5.2 | 0.00 | 0.00 | 0.00 | 89 | 1013.5 |
| 20260905152147 | 81 | 175 | 2.6 | 6.1 | 0.00 | 0.00 | 0.00 | 88 | 1013.5 |
| 20260905151646 | 82 | 180 | 4.3 | 6.1 | 0.00 | 0.00 | 0.00 | 86 | 1013.5 |
| 20260905151147 | 85 | 186 | 4.3 | 4.3 | 0.00 | 0.00 | 0.00 | 84 | 1013.5 |
| 20260905150646 | 85 | 194 | 0.9 | 2.6 | 0.00 | 0.00 | 0.00 | 79 | 1013.5 |
| 20260905150147 | 85 | 269 | 2.6 | 4.3 | 0.00 | 0.00 | 0.00 | 80 | 1013.5 |
| 20260905145646 | 86 | 332 | 3.5 | 5.2 | 0.00 | 0.00 | 0.00 | 78 | 1013.5 |
| 20260905145147 | 86 | 358 | 2.6 | 4.3 | 0.00 | 0.00 | 0.00 | 78 | 1013.5 |
| 20260905144647 | 85 | 58 | 3.5 | 4.3 | 0.00 | 0.00 | 0.00 | 78 | 1013.2 |
| 20260905144146 | 86 | 21 | 1.7 | 2.6 | 0.00 | 0.00 | 0.00 | 80 | 1013.5 |
| 20260905143646 | 85 | 359 | 2.6 | 2.6 | 0.00 | 0.00 | 0.00 | 81 | 1013.5 |
| 20260905143146 | 84 | 330 | 2.6 | 3.5 | 0.00 | 0.00 | 0.00 | 82 | 1013.5 |
| 20260905142647 | 84 | 58 | 0.0 | 4.3 | 0.00 | 0.00 | 0.00 | 83 | 1013.5 |
| 20260905142147 | 84 | 333 | 1.7 | 5.2 | 0.00 | 0.00 | 0.00 | 84 | 1013.5 |
| 20260905141647 | 84 | 350 | 3.5 | 4.3 | 0.00 | 0.00 | 0.00 | 84 | 1013.5 |
| 20260905141147 | 85 | 305 | 5.2 | 7.0 | 0.00 | 0.00 | 0.00 | 83 | 1013.5 |
| 20260905140646 | 85 | 356 | 4.3 | 5.2 | 0.00 | 0.00 | 0.00 | 82 | 1013.5 |
| 20260905140146 | 85 | 7 | 1.7 | 4.3 | 0.00 | 0.00 | 0.00 | 83 | 1013.5 |
| 20260905135646 | 85 | 311 | 1.7 | 5.2 | 0.00 | 0.00 | 0.00 | 83 | 1013.5 |
| 20260905135146 | 84 | 24 | 4.3 | 4.3 | 0.00 | 0.00 | 0.00 | 85 | 1013.5 |
| 20260905134648 | 84 | 288 | 6.1 | 7.0 | 0.00 | 0.00 | 0.00 | 85 | 1013.5 |
| 20260905134147 | 84 | 360 | 4.3 | 5.2 | 0.00 | 0.00 | 0.00 | 86 | 1013.5 |
| 20260905133647 | 84 | 339 | 3.5 | 7.0 | 0.00 | 0.00 | 0.00 | 85 | 1013.2 |
| 20260905133146 | 84 | 305 | 2.6 | 5.2 | 0.00 | 0.00 | 0.00 | 83 | 1013.5 |
| 20260905132647 | 84 | 48 | 0.0 | 3.5 | 0.00 | 0.00 | 0.00 | 85 | 1013.5 |
| 20260905132146 | 83 | 296 | 3.5 | 4.3 | 0.00 | 0.00 | 0.00 | 87 | 1013.5 |
| 20260905131647 | 83 | 294 | 2.6 | 3.5 | 0.00 | 0.00 | 0.00 | 88 | 1013.2 |
| 20260905131147 | 82 | 275 | 2.6 | 3.5 | 0.00 | 0.00 | 0.00 | 87 | 1013.5 |
| 20260905130646 | 82 | 314 | 1.7 | 2.6 | 0.00 | 0.00 | 0.00 | 87 | 1013.5 |
| 20260905130146 | 82 | 337 | 2.6 | 3.5 | 0.00 | 0.00 | 0.00 | 87 | 1013.5 |
| 20260905125647 | 82 | 338 | 0.9 | 2.6 | 0.00 | 0.00 | 0.00 | 88 | 1013.5 |
| 20260905125147 | 81 | 105 | 0.9 | 3.5 | 0.00 | 0.00 | 0.00 | 91 | 1013.5 |
| 20260905124647 | 80 | 281 | 0.9 | 2.6 | 0.00 | 0.00 | 0.00 | 92 | 1013.2 |
| 20260905124146 | 80 | 213 | 1.7 | 3.5 | 0.00 | 0.00 | 0.00 | 93 | 1013.2 |
| 20260905123646 | 79 | 342 | 0.9 | 2.6 | 0.00 | 0.00 | 0.00 | 93 | 1013.5 |
| 20260905123146 | 79 | 351 | 0.9 | 3.5 | 0.00 | 0.00 | 0.00 | 94 | 1013.2 |
| 20260905122647 | 79 | 341 | 1.7 | 2.6 | 0.00 | 0.00 | 0.00 | 95 | 1013.5 |
| 20260905122146 | 78 | 350 | 1.7 | 2.6 | 0.00 | 0.00 | 0.00 | 95 | 1013.2 |
| 20260905121646 | 78 | 307 | 0.0 | 2.6 | 0.00 | 0.00 | 0.00 | 95 | 1013.5 |
| 20260905121146 | 78 | 346 | 2.6 | 2.6 | 0.00 | 0.00 | 0.00 | 95 | 1013.5 |
| 20260905120646 | 78 | 333 | 2.6 | 2.6 | 0.00 | 0.00 | 0.00 | 94 | 1013.2 |
| 20260905120146 | 78 | 171 | 0.9 | 2.6 | 0.00 | 0.00 | 0.00 | 94 | 1013.2 |
| 20260905115646 | 78 | 292 | 1.7 | 3.5 | 0.00 | 0.00 | 0.00 | 94 | 1013.2 |
| 20260905115147 | 78 | 119 | 1.7 | 2.6 | 0.00 | 0.00 | 0.00 | 94 | 1013.2 |
| 20260905114646 | 78 | 211 | 1.7 | 3.5 | 0.00 | 0.00 | 0.00 | 94 | 1013.2 |
| 20260905114146 | 78 | 220 | 0.9 | 3.5 | 0.00 | 0.00 | 0.00 | 94 | 1013.2 |
| 20260905113647 | 78 | 167 | 0.9 | 2.6 | 0.00 | 0.00 | 0.00 | 94 | 1013.2 |
| 20260905113146 | 78 | 234 | 1.7 | 2.6 | 0.00 | 0.00 | 0.00 | 94 | 1012.9 |
| 20260905112646 | 78 | 175 | 2.6 | 3.5 | 0.00 | 0.00 | 0.00 | 94 | 1012.9 |
| 20260905112146 | 78 | 230 | 1.7 | 2.6 | 0.00 | 0.00 | 0.00 | 93 | 1012.5 |
| 20260905111650 | 78 | 253 | 1.7 | 3.5 | 0.00 | 0.00 | 0.00 | 93 | 1012.5 |
| 20260905111146 | 78 | 274 | 0.0 | 2.6 | 0.00 | 0.00 | 0.00 | 94 | 1012.5 |
| 20260905110646 | 78 | 237 | 1.7 | 2.6 | 0.00 | 0.00 | 0.00 | 94 | 1012.2 |
| 20260905110147 | 78 | 23 | 0.9 | 2.6 | 0.00 | 0.00 | 0.00 | 94 | 1012.5 |
| 20260905105646 | 78 | 189 | 1.7 | 2.6 | 0.00 | 0.00 | 0.00 | 94 | 1012.2 |
| 20260905105146 | 78 | 282 | 1.7 | 3.5 | 0.00 | 0.00 | 0.00 | 94 | 1012.2 |
| 20260905104646 | 78 | 220 | 0.0 | 2.6 | 0.00 | 0.00 | 0.00 | 94 | 1012.2 |
| 20260905104146 | 78 | 81 | 0.0 | 0.0 | 0.00 | 0.00 | 0.00 | 94 | 1012.2 |
| 20260905103647 | 78 | 89 | 0.0 | 0.0 | 0.00 | 0.00 | 0.00 | 94 | 1012.2 |
| 20260905103147 | 78 | 360 | 0.0 | 0.9 | 0.00 | 0.00 | 0.00 | 93 | 1012.2 |
| 20260905102646 | 79 | 320 | 0.9 | 0.9 | 0.00 | 0.00 | 0.00 | 93 | 1012.2 |
| 20260905102146 | 79 | 284 | 1.7 | 1.7 | 0.00 | 0.00 | 0.00 | 93 | 1012.5 |
| 20260905101648 | 79 | 238 | 0.9 | 0.9 | 0.00 | 0.00 | 0.00 | 93 | 1012.5 |
| 20260905101146 | 79 | 212 | 0.0 | 0.9 | 0.00 | 0.00 | 0.00 | 93 | 1012.2 |
| 20260905100646 | 79 | 200 | 0.0 | 1.7 | 0.00 | 0.00 | 0.00 | 92 | 1012.5 |
| 20260905100146 | 79 | 205 | 0.0 | 1.7 | 0.00 | 0.00 | 0.00 | 92 | 1012.5 |
| 20260905095646 | 79 | 283 | 1.7 | 2.6 | 0.00 | 0.00 | 0.00 | 92 | 1012.5 |
| 20260905095147 | 79 | 308 | 1.7 | 1.7 | 0.00 | 0.00 | 0.00 | 92 | 1012.5 |
| 20260905094646 | 79 | 308 | 0.9 | 1.7 | 0.00 | 0.00 | 0.00 | 92 | 1012.5 |
| 20260905094146 | 79 | 20 | 0.0 | 1.7 | 0.00 | 0.00 | 0.00 | 93 | 1012.5 |
| 20260905093647 | 79 | 311 | 0.0 | 1.7 | 0.00 | 0.00 | 0.00 | 93 | 1012.5 |
| 20260905093146 | 79 | 309 | 0.0 | 0.9 | 0.00 | 0.00 | 0.00 | 93 | 1012.5 |
| 20260905092647 | 79 | 248 | 0.0 | 0.9 | 0.00 | 0.00 | 0.00 | 93 | 1012.5 |
| 20260905092147 | 79 | 141 | 0.0 | 0.0 | 0.00 | 0.00 | 0.00 | 92 | 1012.5 |
| 20260905091647 | 79 | 279 | 0.0 | 1.7 | 0.00 | 0.00 | 0.00 | 93 | 1012.5 |
| 20260905091146 | 79 | 333 | 0.0 | 1.7 | 0.00 | 0.00 | 0.00 | 92 | 1012.5 |
| 20260905090648 | 79 | 294 | 0.9 | 1.7 | 0.00 | 0.00 | 0.00 | 92 | 1012.5 |
| 20260905090147 | 79 | 276 | 0.0 | 1.7 | 0.00 | 0.00 | 0.00 | 93 | 1012.5 |
| 20260905085646 | 79 | 216 | 1.7 | 2.6 | 0.00 | 0.00 | 0.00 | 93 | 1012.2 |
| 20260905085146 | 79 | 197 | 1.7 | 1.7 | 0.00 | 0.00 | 0.00 | 93 | 1012.5 |
| 20260905084646 | 79 | 227 | 1.7 | 1.7 | 0.00 | 0.00 | 0.00 | 93 | 1012.5 |
| 20260905084147 | 79 | 256 | 0.0 | 1.7 | 0.00 | 0.00 | 0.00 | 93 | 1012.2 |
| 20260905083646 | 79 | 284 | 0.0 | 0.0 | 0.00 | 0.00 | 0.00 | 92 | 1012.5 |
| 20260905083146 | 79 | 322 | 0.0 | 0.9 | 0.00 | 0.00 | 0.00 | 93 | 1012.5 |
| 20260905082647 | 79 | 284 | 0.9 | 1.7 | 0.00 | 0.00 | 0.00 | 93 | 1012.5 |
| 20260905082146 | 79 | 287 | 0.9 | 1.7 | 0.00 | 0.00 | 0.00 | 93 | 1012.2 |
| 20260905081646 | 79 | 234 | 0.0 | 0.9 | 0.00 | 0.00 | 0.00 | 93 | 1012.2 |
| 20260905081146 | 79 | 207 | 0.0 | 0.9 | 0.00 | 0.00 | 0.00 | 93 | 1012.2 |
| 20260905080647 | 79 | 294 | 1.7 | 1.7 | 0.00 | 0.00 | 0.00 | 93 | 1012.2 |
| 20260905080147 | 79 | 275 | 1.7 | 1.7 | 0.00 | 0.00 | 0.00 | 93 | 1011.9 |
| 20260905075647 | 79 | 230 | 0.0 | 1.7 | 0.00 | 0.00 | 0.00 | 93 | 1012.2 |
| 20260905075147 | 79 | 221 | 0.9 | 1.7 | 0.00 | 0.00 | 0.00 | 93 | 1012.2 |
| 20260905074647 | 79 | 236 | 0.9 | 2.6 | 0.00 | 0.00 | 0.00 | 93 | 1012.2 |
| 20260905074146 | 79 | 326 | 0.0 | 1.7 | 0.00 | 0.00 | 0.00 | 93 | 1012.5 |
| 20260905073646 | 79 | 282 | 0.0 | 1.7 | 0.00 | 0.00 | 0.00 | 93 | 1012.2 |
| 20260905073146 | 78 | 224 | 0.0 | 1.7 | 0.00 | 0.00 | 0.00 | 93 | 1012.2 |
| 20260905072646 | 79 | 230 | 1.7 | 2.6 | 0.00 | 0.00 | 0.00 | 93 | 1012.2 |
| 20260905071742 | 79 | 278 | 0.9 | 3.5 | 0.00 | 0.00 | 0.00 | 93 | 1012.2 |
| 20260905071146 | 79 | 235 | 1.7 | 2.6 | 0.00 | 0.00 | 0.00 | 94 | 1012.5 |
| 20260905070646 | 79 | 277 | 0.9 | 3.5 | 0.00 | 0.00 | 0.00 | 94 | 1012.2 |
| 20260905070146 | 79 | 284 | 0.0 | 2.6 | 0.00 | 0.00 | 0.00 | 94 | 1012.2 |
| 20260905065646 | 79 | 208 | 1.7 | 2.6 | 0.00 | 0.00 | 0.00 | 94 | 1012.2 |
| 20260905065146 | 79 | 218 | 1.7 | 3.5 | 0.00 | 0.00 | 0.00 | 94 | 1011.9 |
| 20260905064647 | 79 | 238 | 2.6 | 4.3 | 0.00 | 0.00 | 0.00 | 94 | 1012.2 |
| 20260905064147 | 79 | 190 | 4.3 | 4.3 | 0.00 | 0.00 | 0.00 | 93 | 1012.2 |
| 20260905063647 | 79 | 175 | 2.6 | 3.5 | 0.00 | 0.00 | 0.00 | 93 | 1011.9 |
| 20260905063146 | 79 | 196 | 2.6 | 2.6 | 0.00 | 0.00 | 0.00 | 93 | 1011.9 |
| 20260905062646 | 79 | 207 | 1.7 | 3.5 | 0.00 | 0.00 | 0.00 | 93 | 1012.2 |
| 20260905062146 | 79 | 232 | 1.7 | 2.6 | 0.00 | 0.00 | 0.00 | 93 | 1012.2 |
| 20260905061648 | 79 | 223 | 1.7 | 2.6 | 0.00 | 0.00 | 0.00 | 93 | 1012.2 |
| 20260905061146 | 80 | 240 | 1.7 | 2.6 | 0.00 | 0.00 | 0.00 | 92 | 1012.5 |
| 20260905060647 | 80 | 272 | 1.7 | 1.7 | 0.00 | 0.00 | 0.00 | 93 | 1012.5 |
| 20260905060147 | 80 | 280 | 0.9 | 1.7 | 0.00 | 0.00 | 0.00 | 93 | 1012.2 |
| 20260905055646 | 79 | 330 | 0.0 | 1.7 | 0.00 | 0.00 | 0.00 | 93 | 1012.5 |
| 20260905055147 | 80 | 304 | 0.0 | 1.7 | 0.00 | 0.00 | 0.00 | 93 | 1012.2 |
| 20260905054646 | 80 | 232 | 0.0 | 0.9 | 0.00 | 0.00 | 0.00 | 93 | 1012.2 |
| 20260905054146 | 80 | 224 | 0.0 | 1.7 | 0.00 | 0.00 | 0.00 | 93 | 1012.2 |
| 20260905053646 | 80 | 180 | 1.7 | 1.7 | 0.00 | 0.00 | 0.00 | 93 | 1012.2 |
| 20260905053146 | 80 | 213 | 0.9 | 2.6 | 0.00 | 0.00 | 0.00 | 93 | 1012.5 |
| 20260905052646 | 80 | 185 | 1.7 | 2.6 | 0.00 | 0.00 | 0.00 | 93 | 1012.9 |
| 20260905052147 | 80 | 188 | 1.7 | 2.6 | 0.00 | 0.00 | 0.00 | 93 | 1012.5 |
| 20260905051646 | 80 | 193 | 1.7 | 1.7 | 0.00 | 0.00 | 0.00 | 93 | 1012.9 |
| 20260905051146 | 80 | 160 | 1.7 | 2.6 | 0.00 | 0.00 | 0.00 | 94 | 1012.9 |
| 20260905050202 | 80 | 207 | 1.7 | 2.6 | 0.00 | 0.00 | 0.00 | 92 | 1012.9 |
| 20260905045646 | 80 | 208 | 1.7 | 2.6 | 0.00 | 0.00 | 0.36 | 92 | 1012.9 |
| 20260905045147 | 80 | 201 | 0.9 | 2.6 | 0.00 | 0.00 | 0.36 | 92 | 1012.9 |
| 20260905044646 | 80 | 225 | 0.0 | 2.6 | 0.00 | 0.00 | 0.36 | 92 | 1012.5 |
| 20260905044147 | 80 | 221 | 0.9 | 1.7 | 0.00 | 0.00 | 0.36 | 92 | 1012.9 |
| 20260905043646 | 80 | 223 | 0.9 | 2.6 | 0.00 | 0.00 | 0.36 | 92 | 1012.5 |
| 20260905043146 | 80 | 198 | 2.6 | 2.6 | 0.00 | 0.00 | 0.36 | 92 | 1012.5 |
| 20260905042647 | 81 | 214 | 0.9 | 1.7 | 0.00 | 0.00 | 0.36 | 91 | 1012.5 |
| 20260905042146 | 81 | 241 | 1.7 | 2.6 | 0.00 | 0.00 | 0.36 | 91 | 1012.5 |
| 20260905041646 | 81 | 190 | 0.9 | 1.7 | 0.00 | 0.00 | 0.36 | 91 | 1012.9 |
| 20260905041147 | 81 | 174 | 0.0 | 2.6 | 0.00 | 0.00 | 0.36 | 90 | 1012.9 |
| 20260905040646 | 81 | 125 | 0.0 | 1.7 | 0.00 | 0.00 | 0.36 | 90 | 1012.9 |
| 20260905040146 | 82 | 39 | 0.9 | 2.6 | 0.00 | 0.00 | 0.36 | 89 | 1012.9 |
| 20260905035646 | 82 | 360 | 0.0 | 2.6 | 0.00 | 0.00 | 0.36 | 88 | 1012.9 |
| 20260905035147 | 82 | 129 | 0.0 | 0.9 | 0.00 | 0.00 | 0.36 | 88 | 1012.9 |
| 20260905034647 | 81 | 154 | 0.0 | 0.0 | 0.00 | 0.00 | 0.36 | 88 | 1012.9 |
| 20260905034146 | 81 | 151 | 0.9 | 1.7 | 0.00 | 0.00 | 0.36 | 88 | 1013.2 |
| 20260905033646 | 81 | 176 | 1.7 | 1.7 | 0.00 | 0.00 | 0.36 | 88 | 1013.2 |
| 20260905033148 | 82 | 171 | 0.9 | 1.7 | 0.00 | 0.00 | 0.36 | 88 | 1012.9 |
| 20260905032647 | 82 | 149 | 0.0 | 2.6 | 0.00 | 0.00 | 0.36 | 88 | 1012.9 |
| 20260905032146 | 81 | 189 | 1.7 | 2.6 | 0.00 | 0.00 | 0.36 | 88 | 1012.9 |
| 20260905031646 | 82 | 180 | 2.6 | 3.5 | 0.00 | 0.00 | 0.36 | 87 | 1013.2 |
| 20260905031147 | 82 | 164 | 0.9 | 4.3 | 0.00 | 0.00 | 0.36 | 87 | 1013.5 |
| 20260905030646 | 82 | 174 | 4.3 | 5.2 | 0.00 | 0.00 | 0.36 | 87 | 1013.5 |
| 20260905030147 | 82 | 209 | 1.7 | 2.6 | 0.00 | 0.00 | 0.36 | 88 | 1013.5 |
| 20260905025647 | 82 | 194 | 1.7 | 2.6 | 0.00 | 0.00 | 0.36 | 87 | 1013.5 |
| 20260905025146 | 82 | 176 | 1.7 | 2.6 | 0.00 | 0.00 | 0.36 | 87 | 1013.5 |
| 20260905024646 | 82 | 174 | 2.6 | 2.6 | 0.00 | 0.00 | 0.36 | 87 | 1013.5 |
| 20260905024147 | 82 | 165 | 1.7 | 2.6 | 0.00 | 0.00 | 0.36 | 88 | 1013.5 |
| 20260905023647 | 82 | 180 | 1.7 | 2.6 | 0.00 | 0.00 | 0.36 | 88 | 1013.5 |
| 20260905023146 | 82 | 175 | 0.9 | 3.5 | 0.00 | 0.00 | 0.36 | 87 | 1013.5 |
| 20260905022646 | 82 | 240 | 0.9 | 1.7 | 0.00 | 0.00 | 0.36 | 88 | 1013.2 |
| 20260905022146 | 82 | 211 | 0.9 | 1.7 | 0.00 | 0.00 | 0.36 | 88 | 1013.5 |
| 20260905021646 | 82 | 183 | 0.9 | 3.5 | 0.00 | 0.00 | 0.36 | 87 | 1013.2 |
| 20260905021146 | 83 | 187 | 1.7 | 3.5 | 0.00 | 0.00 | 0.36 | 87 | 1013.2 |
| 20260905020646 | 83 | 212 | 1.7 | 3.5 | 0.00 | 0.00 | 0.36 | 86 | 1013.2 |
| 20260905020146 | 83 | 201 | 0.9 | 2.6 | 0.00 | 0.00 | 0.36 | 85 | 1013.2 |
| 20260905015647 | 83 | 214 | 1.7 | 2.6 | 0.00 | 0.00 | 0.36 | 84 | 1013.2 |
| 20260905015146 | 83 | 187 | 1.7 | 1.7 | 0.00 | 0.00 | 0.36 | 84 | 1012.9 |
| 20260905014646 | 83 | 171 | 1.7 | 1.7 | 0.00 | 0.00 | 0.36 | 84 | 1012.9 |
| 20260905014146 | 83 | 180 | 0.9 | 1.7 | 0.00 | 0.00 | 0.36 | 83 | 1013.2 |
| 20260905013646 | 83 | 117 | 0.0 | 1.7 | 0.00 | 0.00 | 0.36 | 83 | 1012.9 |
| 20260905013146 | 84 | 162 | 0.9 | 1.7 | 0.00 | 0.00 | 0.36 | 82 | 1012.9 |